Location: Amberg
(48.0613°N, 10.6820°E)
Time: 01:39:20
(UTC+00:00)

Cosmos 2058 - Pass Details

Date: 18 November 2025
Orbit: 529 x 541 km, 82.5° (Epoch: 04 December)

Event Time Altitude Azimuth Distance (km) Brightness Sun altitude
Rises 17:27:30 0° 347° (NNW) 2,706 6.4 -18.4°
Reaches altitude 10° 17:29:41 10° 344° (NNW) 1,811 5.5 -18.8°
Maximum altitude 17:33:36 60° 264° (W) 623 3.3 -19.4°
Drops below altitude 10° 17:37:31 10° 184° (S) 1,801 5.6 -20.1°
Sets 17:39:40 0° 181° (S) 2,690 6.4 -20.4°
